Hourly Data Report for June 28, 2021

BORDEN AWOS
ONTARIO
Current Station Operator: DND

44°16'20.000" N
79°54'42.000" W
222.50 m
611B002
71534
YBN

Download Data

Hourly Data (June 2021)
Hourly Data Report for June 28, 2021
TIME
LST
Temp Definition
°C
Dew Point Definition
°C
Rel Hum Definition
%
Precip. Amount Definition
mm

Wind Dir Definition
10's deg

Wind Spd Definition
km/h
Visibility Definition
km
Stn Press Definition
kPa
Hmdx Definition


Wind Chill Definition


Weather Definition


00:00
01:00 22.4 22.4 100   21 6 14.5 99.02 32   LegendNANA
02:00
03:00 22.2 21.9 98   18 9 14.5 99.04 31   LegendNANA
04:00 21.7 21.5 99   21 6 9.7 99.09 31   LegendNANA
05:00 21.2 21.1 99   22 6 9.7 99.13 30   LegendNANA
06:00 22.8 22.3 97   19 7 14.5 99.20 32   LegendNANA
07:00 24.0 21.8 88   23 15 14.5 99.23 33   LegendNANA
08:00 24.7 20.6 78   25 17 14.5 99.28 33   LegendNANA
09:00 25.3 19.4 70   27 15 14.5 99.30 32   LegendNANA
10:00 24.7 19.0 71   30 13 14.5 99.39 31   LegendNANA
11:00 25.1 18.6 67   31 15 14.5 99.43 32   LegendNANA
12:00 26.1 18.5 63   27 11 14.5 99.43 32   LegendNANA
13:00 26.8 18.8 62   29 9 14.5 99.44 33   LegendNANA
14:00 27.9 18.9 58   29 15 14.5 99.44 35   LegendNANA
15:00 28.9 19.1 56   27 13 14.5 99.44 36   LegendNANA
16:00 28.7 19.1 56   31 7 14.5 99.42 36   LegendNANA
17:00 26.8 19.5 64   35 13 14.5 99.40 34   LegendNANA
18:00 25.1 19.1 69   35 13 14.5 99.41 32   LegendNANA
19:00 23.8 18.4 72   36 11 14.5 99.42 30   LegendNANA
20:00 21.8 18.7 83   31 6 14.5 99.48 28   LegendNANA
21:00 19.8 17.9 89   35 4 14.5 99.52     LegendNANA
22:00 18.8 17.5 92     0 14.5 99.57     LegendNANA
23:00 18.2 17.5 96     0 14.5 99.57     LegendNANA

Notes on Data Quality.

Legend

  • E = Estimated
  • M = Missing
  • NA = Not Available*
  • [empty] = Indicates an unobserved value
Date modified: